This demonstration page uses our WeatherBlox Daily Observations layout. Learn more.

Hourly Observations for October 21, 2018

Temp ( °F °C ) Dew Point ( °F °C ) Humidity (%) Winds ( mph kmh ) Pressure ( in mb ) Visibility ( mi km ) Precip ( " mm )
12:15 am 00:15 Clear 39 3.9 29 -1.4 69 69 SSE 8 13 30.36 1028 10 16.09344 0 0
12:35 am 00:35 Clear 40 4.2 30 -1.3 68 68 SSE 8 13 30.36 1028 10 16.09344 0 0
12:55 am 00:55 Clear 39 4.1 30 -1.2 69 69 SSE 7 11 30.36 1028 10 16.09344 0 0
1:15 am 01:15 Clear 40 4.3 30 -1.1 68 68 SSE 8 13 30.36 1028 10 16.09344 0 0
1:35 am 01:35 Clear 39 3.7 30 -1.2 71 71 SSE 6 9 30.36 1028 10 16.09344 0 0
1:55 am 01:55 Clear 38 3.6 30 -1.2 71 71 S 7 11 30.36 1028 10 16.09344 0 0
2:15 am 02:15 Clear 38 3.5 30 -1.3 71 71 S 8 13 30.36 1028 10 16.09344 0 0
2:35 am 02:35 Clear 38 3.6 30 -1.3 71 71 S 9 15 30.36 1028 10 16.09344 0 0
2:55 am 02:55 Clear 38 3.5 30 -1.2 72 72 S 10 17 30.33 1027 10 16.09344 0 0
3:15 am 03:15 Clear 38 3.3 30 -1.2 73 73 S 8 13 30.33 1027 10 16.09344 0 0
3:35 am 03:35 Clear 37 3 30 -1.2 74 74 S 7 11 30.33 1027 10 16.09344 0 0
3:55 am 03:55 Clear 38 3.5 30 -1 73 73 S 9 15 30.33 1027 10 16.09344 0 0
4:15 am 04:15 Clear 40 4.3 30 -1 69 69 S 12 19 30.33 1027 10 16.09344 0 0
4:35 am 04:35 Clear 40 4.3 30 -1 69 69 S 14 22 30.3 1026 10 16.09344 0 0
4:55 am 04:55 Clear 40 4.5 30 -0.9 68 68 S 14 22 30.3 1026 10 16.09344 0 0
5:15 am 05:15 Clear 40 4.5 31 -0.6 70 70 S 13 20 30.3 1026 10 16.09344 0 0
5:35 am 05:35 Clear 40 4.4 31 -0.3 72 72 S 10 17 30.3 1026 10 16.09344 0 0
5:55 am 05:55 Clear 39 3.8 32 -0.2 75 75 S 10 17 30.3 1026 10 16.09344 0 0
6:15 am 06:15 Clear 40 4.2 32 0 74 74 S 12 19 30.27 1025 10 16.09344 0 0
6:35 am 06:35 Clear 39 4.1 32 0.1 75 75 S 9 15 30.27 1025 10 16.09344 0 0
6:55 am 06:55 Clear 40 4.3 33 0.3 75 75 S 12 19 30.27 1025 10 16.09344 0 0
7:15 am 07:15 Clear 40 4.6 33 0.5 75 75 S 12 19 30.24 1024 10 16.09344 0 0
7:35 am 07:35 Clear 41 5 33 0.8 75 75 S 10 17 30.24 1024 10 16.09344 0 0
7:55 am 07:55 Sunny 41 5.2 34 1 75 75 S 12 19 30.24 1024 10 16.09344 0 0
8:15 am 08:15 Sunny 42 5.5 34 1.3 75 75 S 14 22 30.21 1023 10 16.09344 0 0
8:35 am 08:35 Sunny 42 5.8 35 1.6 75 75 S 14 22 30.21 1023 10 16.09344 0 0
8:55 am 08:55 Sunny 44 6.5 36 2 73 73 S 14 22 30.21 1023 10 16.09344 0 0
9:15 am 09:15 Sunny 45 7.3 36 2.3 71 71 S 17 28 30.21 1023 10 16.09344 0 0
9:35 am 09:35 Sunny 46 8 37 2.5 69 69 SSW 18 30 30.18 1022 10 16.09344 0 0
9:55 am 09:55 Sunny 48 9.1 38 3.2 67 67 SSW 15 24 30.18 1022 10 16.09344 0 0
10:15 am 10:15 Sunny 50 10.2 38 3.6 64 64 SSW 17 28 30.18 1022 10 16.09344 0 0
10:35 am 10:35 Sunny 52 11.3 39 4 61 61 SSW 16 26 30.12 1020 10 16.09344 0 0
10:55 am 10:55 Sunny 54 12.4 40 4.2 58 58 SSW 14 22 30.12 1020 10 16.09344 0 0
11:15 am 11:15 Sunny 56 13.6 40 4.6 55 55 SSW 16 26 30.12 1020 10 16.09344 0 0
11:35 am 11:35 Sunny 58 14.5 40 4.7 52 52 SSW 15 24 30.09 1019 10 16.09344 0 0
11:55 am 11:55 Sunny 60 15.7 41 5 49 49 SSW 15 24 30.09 1019 10 16.09344 0 0
12:15 pm 12:15 Sunny 63 17 42 5.4 47 47 SSW 14 22 30.09 1019 10 16.09344 0 0
12:35 pm 12:35 Sunny 64 18 41 5.1 43 43 SSW 14 22 30.06 1018 10 16.09344 0 0
12:55 pm 12:55 Sunny 67 19.2 42 5.4 41 41 SSW 15 24 30.06 1018 10 16.09344 0 0
1:15 pm 13:15 Sunny 68 20.2 42 5.5 38 38 SSW 13 20 30.03 1017 10 16.09344 0 0
1:35 pm 13:35 Sunny 70 20.9 42 5.6 37 37 SSW 12 19 30 1016 10 16.09344 0 0
1:55 pm 13:55 Sunny 72 22.2 42 5.5 34 34 SSW 15 24 29.97 1015 10 16.09344 0 0
2:15 pm 14:15 Sunny 74 23.1 41 5.2 31 31 SW 13 20 29.97 1015 10 16.09344 0 0
2:35 pm 14:35 Sunny 75 24.1 40 4.4 28 28 SSW 17 28 29.91 1013 10 16.09344 0 0
2:55 pm 14:55 Sunny 76 24.4 39 4.1 27 27 SW 17 28 29.91 1013 10 16.09344 0 0
3:15 pm 15:15 Sunny 75 24.1 39 3.7 27 27 SW 17 28 29.91 1013 10 16.09344 0 0
3:35 pm 15:35 Sunny 76 24.5 38 3.6 26 26 SW 15 24 29.91 1013 10 16.09344 0 0
3:55 pm 15:55 Sunny 76 24.5 40 4.2 27 27 SSW 10 17 29.88 1012 10 16.09344 0 0
4:15 pm 16:15 Sunny 76 24.7 40 4.5 27 27 SSW 18 30 29.88 1012 10 16.09344 0 0
4:35 pm 16:35 Sunny 76 24.3 40 4.6 28 28 SSW 14 22 29.88 1012 10 16.09344 0 0
4:55 pm 16:55 Sunny 75 24 41 4.9 29 29 SSW 16 26 29.88 1012 10 16.09344 0 0
5:15 pm 17:15 Sunny 75 23.7 39 3.7 27 27 SSW 18 30 29.88 1012 10 16.09344 0 0
5:35 pm 17:35 Sunny 74 23.3 40 4.3 29 29 SSW 17 28 29.88 1012 10 16.09344 0 0
5:55 pm 17:55 Sunny 73 22.8 40 4.5 30 30 SSW 15 24 29.91 1013 10 16.09344 0 0
6:15 pm 18:15 Sunny 72 22.1 41 5.2 33 33 S 9 15 29.91 1013 10 16.09344 0 0
6:35 pm 18:35 Sunny 70 21.1 41 5.1 35 35 S 9 15 29.91 1013 10 16.09344 0 0
6:55 pm 18:55 Clear 68 19.8 41 5 38 38 S 9 15 29.91 1013 10 16.09344 0 0
7:15 pm 19:15 Clear 65 18.6 41 4.8 40 40 S 9 15 29.94 1014 10 16.09344 0 0
7:35 pm 19:35 Clear 64 17.8 41 4.9 43 43 S 10 17 29.94 1014 10 16.09344 0 0
7:55 pm 19:55 Clear 63 17.2 41 5 45 45 S 10 17 29.94 1014 10 16.09344 0 0
8:15 pm 20:15 Clear 59 14.9 41 5.1 52 52 S 9 15 29.97 1015 10 16.09344 0 0
8:35 pm 20:35 Clear 59 15 42 5.5 53 53 S 7 11 29.97 1015 10 16.09344 0 0
8:55 pm 20:55 Clear 58 14.3 42 5.5 56 56 S 7 11 29.97 1015 10 16.09344 0 0
9:15 pm 21:15 Clear 58 14.3 42 5.7 57 57 S 8 13 29.97 1015 10 16.09344 0 0
9:35 pm 21:35 Clear 57 14.1 42 5.7 57 57 S 7 11 29.97 1015 10 16.09344 0 0
9:55 pm 21:55 Clear 50 9.8 40 4.7 71 71 SSE 5 7 30 1016 10 16.09344 0 0
10:15 pm 22:15 Clear 50 10 41 4.9 71 71 Calm 30 1016 10 16.09344 0 0
10:35 pm 22:35 Clear 51 10.3 41 4.9 69 69 S 3 6 30 1016 10 16.09344 0 0
10:55 pm 22:55 Clear 49 9.6 41 5 73 73 SSE 3 6 30 1016 10 16.09344 0 0
11:15 pm 23:15 Clear 51 10.6 42 5.3 70 70 S 5 7 30 1016 10 16.09344 0 0
11:35 pm 23:35 Clear 51 10.3 41 5.1 70 70 S 6 9 30 1016 10 16.09344 0 0
11:55 pm 23:55 Clear 51 10.3 41 4.8 69 69 S 6 9 30 1016 10 16.09344 0 0

Powered by AerisWeather